Regional Weather Roundup
Issued by NWS

Home | Current Version | Previous Version | Text Only | Print | Product List | Glossary On
Versions: 1 2 3 4 5 6 7 8 9 10 11 12 13 14 15 16 17 18 19 20 21 22 23 24 25 26 27 28 29 30 31 32 33 34 35 36 37 38 39 40 41 42 43 44 45 46 47 48 49 50
000
ASUS42 KTBW 112316
RWRFL
FLORIDA REGIONAL WEATHER ROUNDUP
NATIONAL WEATHER SERVICE TAMPA BAY RUSKIN FL
600 PM EST THU FEB 11 2016

NOTE: "FAIR" INDICATES FEW OR NO CLOUDS BELOW 12,000 FEET WITH NO
SIGNIFICANT WEATHER AND/OR OBSTRUCTIONS TO VISIBILITY.


FLZ001>010-012>015-112-114-115-120000-
PANHANDLE FLORIDA

CITY           SKY/WX    TMP DP  RH WIND       PRES   REMARKS
PENSACOLA      PTCLDY    66  56  70 SW15G23   30.15R
PENSACOLA NAS  PTCLDY    64  56  75 SW15G21   30.15R
CRESTVIEW      CLEAR     65  54  67 SW9       30.15R
DUKE FIELD     PTCLDY    65  54  68 SW13      30.13R
VALPARAISO     PTCLDY    64  56  73 W15G23    30.15R
MARY ESTHER    CLEAR     63  55  73 SW9       30.15R
TRI COUNTY     FAIR      63  52  67 SW10G18   30.16R
PANAMA CITY    FAIR      65  54  67 SW17      30.16R
TYNDALL AFB    CLEAR     64  55  71 SW10      30.18S
APALACHICOLA   CLEAR     64  52  64 SW10      30.20S

STATION/POSITION SKY/WX   TEMP    WIND        PRES    WAVE   SWELL
                          AIR SEA DIR/SP/G            HT/PER HT/PER
                          (F)     (DEG/KT/KT) (MB)    (FT/S) (FT/S)
30.1N   87.6W              65 64  230/ 19/ 21 1020.4R   4/ 5
28.8N   86.0W              67 70  240/ 14/ 17 1023.6S   3/ 6
PANAMA CITY BEAC           63 59              1021.8F
CAPE SAN BLAS    NOT AVBL
TOWER C          NOT AVBL
28.5N   84.5W              66 67  240/ 10/ 14 1024.2R   3/ 7   2/ 7

$$
FLZ011-016>038-118-127-128-134-139-239-120000-
NORTH FLORIDA

CITY           SKY/WX    TMP DP  RH WIND       PRES   REMARKS
MARIANNA       CLEAR     65  50  58 SW15      30.14R
TALLAHASSEE    CLEAR     68  44  42 SW13      30.16R
PERRY          CLEAR     59  52  77 S12G17    30.21S
LIVE OAK         N/A     63  52  67 SW12G17   30.21R
CROSS CITY       N/A     59  48  67 SW13      30.23R
LAKE CITY      FAIR      61  46  59 W14G21    30.19R
GAINESVILLE    CLEAR     62  42  47 W13       30.21R
WILLISTON      FAIR      63  48  59 SW13      30.25R
KEYSTONE HEIGH FAIR      64  39  39 SW9       30.20R
PALATKA        FAIR      64  41  42 SW6       30.21R
MAYPORT NAS    CLEAR     58  47  66 SE10      30.18R
JACKSONVILLE   CLEAR     63  42  46 SW9       30.16R
JAX NAS        PTCLDY    67  40  37 SW13      30.18R
JAX CRAIG      CLEAR     65  41  41 SW10      30.18R
JAX CECIL      CLEAR     64  43  45 SW13      30.18R
FERNANDINA BEA FAIR      59  46  63 SE10      30.16R
ST AUGUSTINE   CLEAR     59  46  62 SE10      30.21R
PALM COAST     CLEAR     57  43  58 SE6       30.22S

STATION/POSITION SKY/WX   TEMP    WIND        PRES    WAVE   SWELL
                          AIR SEA DIR/SP/G            HT/PER HT/PER
                          (F)     (DEG/KT/KT) (MB)    (FT/S) (FT/S)
SHELL POINT                60     210/ 17/ 21 1020.5
KEATON BEACH               55     170/ 14/ 15 1023.0S
CEDAR KEY                  55     200/ 13/ 14 1024.5F
FERNANDINA                 59 54              1021.0R
30.7N   81.3W                 56                N/A     3/ 4   2/13
MAYPORT                    61 55              1021.3S
31.4N   80.9W              55 53  170/ 14/ 16 1021.6R   2/ 4
ST AUGUSTINE               57 58  170/ 18/ 21 1023.4R

$$
FLZ040-043>046-052-053-057-058-063-144-120000-
INTERIOR CENTRAL FLORIDA

CITY           SKY/WX    TMP DP  RH WIND       PRES   REMARKS
OCALA          CLEAR     63  41  45 SW12      30.25R
THE VILLAGES     N/A     64  43  45 W8G16     30.15R
LEESBURG       CLEAR     64  43  46 W8        30.25R
SANFORD        CLEAR     63  34  33 S5        30.24S
ORLANDO EXEC   CLEAR     65  35  33 S8        30.25R
ORLANDO INTL   PTCLDY    62  34  35 S7        30.25S
KISSIMMEE      CLEAR     63  39  42 MISG      30.26S
WINTER HAVEN   CLEAR     64  37  36 SW5       30.26S
LAKELAND       CLEAR     66  39  37 CALM      30.26S
BARTOW         FAIR      63  36  36 CALM      30.26S
OKEECHOBEE     CLEAR     59  41  51 S5        30.28R

$$
FLZ041-047-054-059-064-141-147-120000-
EAST CENTRAL FLORIDA

CITY           SKY/WX    TMP DP  RH WIND       PRES   REMARKS
ORMOND BEACH   CLEAR     59  41  51 SE5       30.23S
DAYTONA BEACH  PTCLDY    62  37  39 S5        30.23S
DELAND           N/A     63  37  39 S7        30.25R
NEW SMYRNA BEA CLEAR     57  43  58 SE12      30.23S
JFK SPACE CTR  CLEAR     58  38  48 S3        30.25R
CAPE CANAVERAL CLEAR     57  40  52 SE8       30.24S
PATRICK AFB    CLEAR     59  38  46 SE12      30.26R
MELBOURNE      CLEAR     58  38  47 SE7       30.27R
VERO BEACH     CLEAR     58  38  47 E5        30.28R
FT PIERCE      CLEAR     58  43  57 E3        30.28R

STATION/POSITION SKY/WX   TEMP    WIND        PRES    WAVE   SWELL
                          AIR SEA DIR/SP/G            HT/PER HT/PER
                          (F)     (DEG/KT/KT) (MB)    (FT/S) (FT/S)
28.5N   80.2W              61 74  240/  2/  4 1025.0R
28.9N   78.5W              61 72              1025.0R
TRIDENT PIER               60 62              1024.2R
28.4N   80.5W                 63                N/A     1/ 5
27.5N   80.2W                 69                N/A     3/14   2/14

$$
FLZ050-056-061-142-242-148-248-149-249-151-251-155-255-
160-260-120000-
WEST CENTRAL FLORIDA

CITY           SKY/WX    TMP DP  RH WIND       PRES   REMARKS
CRYSTAL RIVER  FAIR      59  46  63 SW3       30.27R
INVERNESS      FAIR      61  46  59 CALM      30.27R
BROOKSVILLE    CLEAR     61  45  55 W9        30.27R
ZEPHYRHILLS    FAIR      64  42  44 SW5       30.26R
CLEARWATER AIR FAIR      59  46  63 SW6       30.27S
ST PETE CLEARW CLEAR     61  46  57 SW9       30.27S
TAMPA INTL     CLEAR     60  48  64 SW6       30.27S
TAMPA EXEC     CLEAR     64  45  48 SW6       30.27R
PLANT CITY     CLEAR     64  45  48 SW6       30.27S
MACDILL AFB    CLEAR     62  50  66 W5        30.26S
PETER O KNIGHT CLEAR     63  46  55 W5        30.27S
ST PETERSBURG  CLEAR     62  47  57 W8        30.26S
SARASOTA       CLEAR     60  49  66 W7        30.27R
VENICE         FAIR      59  48  67 W6        30.29R

STATION/POSITION SKY/WX   TEMP    WIND        PRES    WAVE   SWELL
                          AIR SEA DIR/SP/G            HT/PER HT/PER
                          (F)     (DEG/KT/KT) (MB)    (FT/S) (FT/S)
CEDAR KEY                  55     200/ 13/ 14 1024.5F
28.5N   84.5W              66 67  240/ 10/ 14 1024.2R   3/ 7   2/ 7
27.3N   84.2W                 71                N/A     2/ 7
CLEARWATER BEACH           58 56              1025.0R
MIDDLE TAMPA BAY           59                 1025.3R
VENICE                     60 61  250/  5/  5 1025.1R

$$
FLZ066-069-070-075>078-162-262-165-265-120000-
SOUTHWEST FLORIDA AND KEYS

CITY           SKY/WX    TMP DP  RH WIND       PRES   REMARKS
PUNTA GORDA    CLEAR     65  42  43 CALM      30.28S
FT MYERS       CLEAR     66  38  35 E3        30.26R
SOUTHWEST INTL CLEAR     66  37  34 SE5       30.27R
NAPLES         CLEAR     66  37  34 E6        30.26R
MARCO ISLAND   CLEAR     64  45  48 SW5       30.27R
MARATHON       CLOUDY    61  43  51 NE3       30.27R
KEY WEST NAS   CLOUDY    62  41  46 NE9       30.27S
KEY WEST INTL  CLOUDY    62  41  46 NE6       30.27S

STATION/POSITION SKY/WX   TEMP    WIND        PRES    WAVE   SWELL
                          AIR SEA DIR/SP/G            HT/PER HT/PER
                          (F)     (DEG/KT/KT) (MB)    (FT/S) (FT/S)
VENICE                     60 61  250/  5/  5 1025.1R
NAPLES                        64              1024.5R
26.0N   85.6W              67 79   80/  6/ 10 1025.4R   2/ 6   2/ 6
DRY TORTUGAS     NOT AVBL
SAND KEY                   62      70/ 13/ 17 1025.1S
LONG KEY                   62 64  320/  2/  2 1025.7R
MOLASSES REEF              66 72   10/ 19/ 20 1024.0F

$$
FLZ067-068-071>074-168-172>174-120000-
SOUTHEAST FLORIDA

CITY           SKY/WX    TMP DP  RH WIND       PRES   REMARKS
W PALM BEACH   MOCLDY    63  37  38 N6        30.29R
BOCA RATON     CLEAR     63  46  55 NE7       30.28R
FT LAUDER-EXEC CLEAR     64  39  39 NE6       30.27R
FT LAUDERDALE  CLOUDY    64  44  48 NE8       30.27R
POMPANO BEACH  CLEAR     64  48  56 N7        30.28R
PEMBROKE PINES PTCLDY    65  41  41 NE7       30.29R
OPA LOCKA      MOCLDY    66  39  37 NE9       30.28R
MIAMI          MOCLDY    65  41  41 NE7       30.28R
WEST KENDALL   MOCLDY    64  41  42 CALM      30.28R
HOMESTEAD      PTCLDY    63  51  64 NE9       30.27R

STATION/POSITION SKY/WX   TEMP    WIND        PRES    WAVE   SWELL
                          AIR SEA DIR/SP/G            HT/PER HT/PER
                          (F)     (DEG/KT/KT) (MB)    (FT/S) (FT/S)
PORT EVERGLADES            65      30/  5/ 11 1025.0R
VIRGINIA KEY               66 68        C1F1M1C2F2M2C3F3C4F4M3C5F5M4C6F6M5C7F7M6C8!


USA.gov is the U.S. government's official web portal to all federal, state and local government web resources and services.